TimeIST,TemperatureF,Dew PointF,Humidity,Sea Level PressureIn,VisibilityMPH,Wind Direction,Wind SpeedMPH,Gust SpeedMPH,PrecipitationIn,Events,Conditions,WindDirDegrees,DateUTC
12:10 AM,73.4,68.0,83,29.98,2.5,NE,6.9,-,N/A,,Haze,50,2013-02-21 18:40:00
12:40 AM,73.4,68.0,83,29.98,2.5,NE,9.2,-,N/A,,Haze,50,2013-02-21 19:10:00
1:40 AM,73.4,68.0,83,29.95,1.9,NE,10.4,-,N/A,,Haze,50,2013-02-21 20:10:00
2:10 AM,73.4,68.0,83,29.95,1.9,NE,9.2,-,N/A,,Haze,40,2013-02-21 20:40:00
2:30 AM,73,68,79,29.94,1,NE,9.2,,,,Haze,50,2013-02-21 21:00:00
2:40 AM,73.4,68.0,83,29.95,1.9,NE,9.2,-,N/A,,Haze,50,2013-02-21 21:10:00
3:10 AM,71.6,68.0,88,29.95,1.6,NNE,6.9,-,N/A,,Haze,30,2013-02-21 21:40:00
3:40 AM,71.6,68.0,88,29.95,1.6,NNE,4.6,-,N/A,,Haze,30,2013-02-21 22:10:00
4:10 AM,71.6,68.0,88,29.95,1.6,NNE,5.8,-,N/A,,Haze,20,2013-02-21 22:40:00
4:40 AM,71.6,68.0,88,29.95,1.6,North,4.6,-,N/A,,Haze,10,2013-02-21 23:10:00
5:10 AM,71.6,68.0,88,29.95,1.6,NNE,4.6,-,N/A,,Haze,20,2013-02-21 23:40:00
5:30 AM,72,68,85,29.95,1,NNE,5.8,,,,Haze,20,2013-02-22 00:00:00
5:40 AM,71.6,68.0,88,29.95,1.6,North,5.8,-,N/A,,Haze,10,2013-02-22 00:10:00
6:10 AM,71.6,68.0,88,29.95,1.2,North,4.6,-,N/A,,Partly Cloudy,10,2013-02-22 00:40:00
6:40 AM,71.6,68.0,88,29.98,1.2,North,5.8,-,N/A,,Mist,360,2013-02-22 01:10:00
7:10 AM,73.4,68.0,83,29.98,1.0,North,4.6,-,N/A,,Mist,10,2013-02-22 01:40:00
7:40 AM,75.2,68.0,78,30.01,1.0,North,4.6,-,N/A,,Mist,360,2013-02-22 02:10:00
8:10 AM,77.0,68.0,74,30.01,1.2,NNE,6.9,-,N/A,,Mist,20,2013-02-22 02:40:00
8:30 AM,78,68,64,30.01,1,NNE,9.2,,,,Haze,20,2013-02-22 03:00:00
8:40 AM,78.8,68.0,69,30.01,1.6,NNE,8.1,-,N/A,,Haze,30,2013-02-22 03:10:00
9:10 AM,78.8,68.0,69,30.01,1.6,NNE,8.1,-,N/A,,Haze,20,2013-02-22 03:40:00
10:10 AM,82.4,68.0,62,30.04,1.9,NE,8.1,-,N/A,,Haze,50,2013-02-22 04:40:00
10:40 AM,84.2,68.0,58,30.01,2.5,ENE,6.9,-,N/A,,Haze,70,2013-02-22 05:10:00
11:10 AM,86.0,68.0,55,30.01,2.5,East,10.4,-,N/A,,Haze,80,2013-02-22 05:40:00
11:30 AM,87,66,41,29.99,2,East,8.1,,,,Haze,90,2013-02-22 06:00:00
11:40 AM,86.0,68.0,55,30.01,3.1,NE,8.1,-,N/A,,Haze,50,2013-02-22 06:10:00
12:10 PM,87.8,68.0,52,29.98,3.1,East,9.2,-,N/A,,Haze,90,2013-02-22 06:40:00
12:40 PM,87.8,68.0,52,29.98,3.7,ENE,12.7,-,N/A,,Scattered Clouds,70,2013-02-22 07:10:00
1:10 PM,89.6,68.0,49,29.95,3.7,East,10.4,-,N/A,,Scattered Clouds,100,2013-02-22 07:40:00
1:40 PM,89.6,66.2,46,29.92,3.7,East,6.9,-,N/A,,Scattered Clouds,90,2013-02-22 08:10:00
2:10 PM,91.4,66.2,43,29.92,3.7,East,10.4,-,N/A,,Partly Cloudy,100,2013-02-22 08:40:00
2:30 PM,92,62,27,29.89,2,East,11.5,,,,Haze,90,2013-02-22 09:00:00
2:40 PM,93.2,64.4,38,29.89,3.7,East,10.4,-,N/A,,Partly Cloudy,100,2013-02-22 09:10:00
3:10 PM,93.2,64.4,38,29.89,5.0,East,11.5,-,N/A,,Partly Cloudy,100,2013-02-22 09:40:00
3:40 PM,93.2,64.4,38,29.89,5.0,East,11.5,-,N/A,,Partly Cloudy,90,2013-02-22 10:10:00
4:10 PM,93.2,64.4,38,29.86,5.0,East,12.7,-,N/A,,Partly Cloudy,90,2013-02-22 10:40:00
4:40 PM,91.4,64.4,41,29.86,5.0,East,13.8,-,N/A,,Partly Cloudy,100,2013-02-22 11:10:00
5:10 PM,91.4,64.4,41,29.86,5.0,ESE,17.3,-,N/A,,Partly Cloudy,120,2013-02-22 11:40:00
5:30 PM,90,59,26,29.86,2,East,13.8,,,,Haze,90,2013-02-22 12:00:00
5:40 PM,89.6,62.6,40,29.86,5.0,East,15.0,-,N/A,,Partly Cloudy,90,2013-02-22 12:10:00
6:10 PM,89.6,60.8,38,29.89,3.7,East,13.8,-,N/A,,Unknown,90,2013-02-22 12:40:00
7:10 PM,84.2,66.2,55,29.92,3.1,East,11.5,-,N/A,,Haze,90,2013-02-22 13:40:00
7:40 PM,82.4,66.2,58,29.92,3.1,East,10.4,-,N/A,,Haze,80,2013-02-22 14:10:00
8:10 PM,80.6,68.0,65,29.92,3.1,East,12.7,-,N/A,,Haze,90,2013-02-22 14:40:00
8:30 PM,80,67,56,29.93,2,East,12.7,,,,Haze,90,2013-02-22 15:00:00
8:40 PM,80.6,68.0,65,29.95,3.1,East,9.2,-,N/A,,Haze,90,2013-02-22 15:10:00
9:10 PM,78.8,69.8,74,29.95,3.1,East,5.8,-,N/A,,Haze,90,2013-02-22 15:40:00
9:40 PM,78.8,68.0,69,29.98,3.1,SE,5.8,-,N/A,,Haze,130,2013-02-22 16:10:00
10:10 PM,78.8,68.0,69,29.98,3.1,ENE,4.6,-,N/A,,Haze,60,2013-02-22 16:40:00
10:40 PM,78.8,69.8,74,29.98,3.1,East,3.5,-,N/A,,Haze,80,2013-02-22 17:10:00
11:10 PM,77.0,69.8,78,29.98,3.1,ENE,4.6,-,N/A,,Haze,60,2013-02-22 17:40:00
11:30 PM,75,70,79,29.97,2,NNE,4.6,,,,Haze,20,2013-02-22 18:00:00
11:40 PM,75.2,69.8,83,29.98,2.5,NNE,3.5,-,N/A,,Haze,30,2013-02-22 18:10:00